Simultaneous Nadir Overpasses (SNOs) Predictions

Prediction of SNOs between AQUA and GOES-15 Satellite Orbit:

Table of predicted SNOs for the next 14.0 days since TLE Epoch: 1/4/2025
Index Date Time (AQUA) AQUA Lat,Lon GOES-15 Lat,Lon Distance(km) Time Diff (sec)
1 01/06/2025 10:21:32 0.03, 61.38 0.04, 61.47 10.89 80
2 01/08/2025 22:21:58 -0.02, 61.33 -0.04, 61.37 5.16 24
3 01/11/2025 10:22:31 -0.04, 61.26 0.03, 61.52 30.57 80
4 01/13/2025 10:03:26 0.99, 65.92 0.01, 61.55 498.49 80
5 01/13/2025 22:22:54 0.03, 61.22 -0.02, 61.42 23.49 80
6 01/16/2025 10:23:23 -0.06, 61.16 0.01, 61.59 48.37 80
